Retour au catalogue

BREEZE-M R/B

ActifMEO
NORAD 37807·ROCKET BODY·🇷🇺 Russia

Lancé Sep 20, 2011 depuis Baikonur Cosmodrome

Loading…

Prochains Passages (prochaines 24 heures)

TLE

FraisSource: Space-Track

Époque: Sep 14, 2026, 13:24 UTC

1 37807U 11048B   26257.55854157 -.00000198  00000-0  00000-0 0  9990
2 37807  10.2260  41.9951 0228095  87.5877 287.9616  1.04264398 56552

Suivez BREEZE-M R/B en temps réel avec AllMySat

Download on the App Store